Regional Weather Roundup
Issued by NWS

Home | Current Version | Previous Version | Graphics & Text | Print | Product List | Glossary Off
Versions: 1 2 3 4 5 6 7 8 9 10 11 12 13 14 15 16 17 18 19 20 21 22 23 24 25 26 27 28 29 30 31 32 33 34 35 36 37 38 39 40 41 42 43 44 45 46 47 48 49 50

000
ASUS45 KBOU 261607
RWRCO

WEATHER ROUNDUP FOR COLORADO
NATIONAL WEATHER SERVICE DENVER/BOULDER CO
900 AM MST SUN FEB 26 2017

NOTE: "FAIR" INDICATES FEW OR NO CLOUDS BELOW 12000 FEET WITH NO
SIGNIFICANT WEATHER AND/OR OBSTRUCTIONS TO VISIBILITY.

COZ001>005-013-030-031-261700-
...NORTHWEST COLORADO...

CITY           SKY/WX    TMP DP  RH WIND       PRES   REMARKS
CRAIG          FAIR       8   3  80 CALM      29.93S
HAYDEN         FAIR       9   0  66 E9        29.90S WCI  -5
MEEKER         FAIR      11   5  77 CALM      29.93R
MOUNT WERNER   NOT AVBL
STEAMBOAT SPGS FAIR       7  -1  71 CALM      29.90R
WALDEN         NOT AVBL
$$

COZ006>008-011-261700-
...WEST CENTRAL VALLEYS...

CITY           SKY/WX    TMP DP  RH WIND       PRES   REMARKS
GRAND JUNCTION FAIR      28  11  48 E3        29.96R
MONTROSE       FAIR      26  14  60 CALM      29.96S
EAGLE          SUNNY     23   7  50 CALM      29.95R
RIFLE          FAIR      22  11  62 VRB3      29.97R
DELTA          FAIR      31   9  39 E5        29.97S WCI  26
NUCLA          FAIR      28  14  54 SE3       29.97S
$$

COZ017>023-064>068-261700-
...SOUTHWEST COLORADO...

CITY           SKY/WX    TMP DP  RH WIND       PRES   REMARKS
DURANGO        FAIR      27  11  51 SW3       29.91R
CORTEZ         FAIR      31  19  61 NE6       29.94R WCI  25
PAGOSA SPRINGS FAIR      25   8  48 CALM      29.88S
TELLURIDE      FAIR      13   8  79 SE3       29.87R
WOLF CREEK PAS CLOUDY     5   3  92 SW10      29.81R WCI -10
$$

COZ009-010-012-014-032>034-037-058>063-261700-
...CENTRAL COLORADO...

CITY           SKY/WX    TMP DP  RH WIND       PRES   REMARKS
ASPEN          FAIR      12   0  58 CALM      29.85S
BUENA VISTA    FAIR      23  -9  24 NW18      29.78R WCI   9
COPPER MTN     NOT AVBL
BERTHOUD PASS  PTSUNNY   -9 -18  64 NW22      29.60S WCI -35
COTTONWOOD PAS FAIR      18 -13  25 W21G30    29.71R WCI   1
GUNNISON       FAIR       6   1  80 SE3       29.90R
KREMMLING      FAIR      14   7  73 S3        29.90S
LEADVILLE      FAIR      10 -12  36 NW8       29.76R WCI  -2
MONARCH PASS   CLOUDY     0  -6  78 W44G49    29.72S WCI -30
SALIDA         FAIR      28  -3  26 SW21G29   29.86S WCI  14
SUNLIGHT       NOT AVBL
WILKERSON PASS FAIR       9 -15  33 W12G21    29.67R WCI  -6
$$

COZ069>075-261700-
...SAN LUIS VALLEY/SANGRE DE CRISTO MOUNTAINS...

CITY           SKY/WX    TMP DP  RH WIND       PRES   REMARKS
ALAMOSA        FAIR      22   8  55 E5        29.86R WCI  16
LA VETA PASS   PTSUNNY   16   5  62 S21G33    29.75S WCI  -2
SAGUACHE       FAIR      23   5  46 W16G22    29.85S WCI  10
$$

COZ035-036-038>040-261700-
...NORTHERN COLORADO FRONT RANGE...

CITY           SKY/WX    TMP DP  RH WIND       PRES   REMARKS
DENVER INTL AP FAIR      28   9  44 SE14      29.80R WCI  17
DMNS CITY PARK   N/A     29   2  31 MISG      29.80S
AURORA         MOSUNNY   28   2  32 SE8       29.80R WCI  20
FRONT RANGE AP SUNNY     30  10  43 SE13G22   29.81R WCI  20
ERIE MUNI ARPT FAIR      29   6  36 SE8       29.81R WCI  21
BOULDER MUN AP FAIR      27   9  46 NE3       29.80R
CENTENNIAL     FAIR      27   3  35 SE10      29.78S WCI  17
BROOMFIELD     SUNNY     28   3  34 SE12      29.79R WCI  18
FORT COLLINS   FAIR      24  11  57 S7        29.83R WCI  16
LONGMONT       FAIR      29  10  46 CALM      29.83S
$$

COZ041-046-047-076>085-087-088-261700-
...PIKES PEAK/PALMER DIVIDE AND SOUTHERN FOOTHILLS...

CITY           SKY/WX    TMP DP  RH WIND       PRES   REMARKS
COLO. SPRINGS  FAIR      29  -1  27 SE8       29.80R WCI  21
A. F. ACADEMY  FAIR      28  -3  25 VRB3      29.77R
SCHRIEVER AFB  FAIR      28  -1  29 E8        29.80R WCI  20
ELLICOTT       NOT AVBL
FALCON         FAIR      28  -4  25 SE3       29.79R
FORT CARSON    FAIR      29   1  30 NE3       29.79S
LIMON          FAIR      26  12  55 SE6       29.83R WCI  19
MONUMENT HILL  FAIR      25   0  33 SW5       29.77S WCI  19
TRINIDAD       FAIR      34   4  28 CALM      29.85R
$$

COZ042>045-048>051-090-091-261700-
...NORTHEAST COLORADO...

CITY           SKY/WX    TMP DP  RH WIND       PRES   REMARKS
GREELEY ARPT   FAIR      27  15  61 SE7       29.86R WCI  19
AKRON          FAIR      28   7  41 CALM      29.86R
BURLINGTON     FAIR      32  11  41 SE8       29.88S WCI  25
WRAY           NOT AVBL
STERLING       FAIR      27  10  50 CALM      29.87R
HOLYOKE        FAIR      32  19  59 SW3       29.90R
FORT MORGAN    FAIR      24  15  68 S5        29.87R WCI  18
$$

COZ086-089-092>099-261700-
...SOUTHEAST COLORADO...

CITY           SKY/WX    TMP DP  RH WIND       PRES   REMARKS
PUEBLO         FAIR      26   6  42 CALM      29.84S
LA JUNTA       FAIR      27   9  46 SE5       29.88S WCI  22
LAMAR          FAIR      28   9  44 E3        29.90R
SPRINGFIELD      N/A     41   1  18 NE5       29.86S
$$



USA.gov is the U.S. government's official web portal to all federal, state and local government web resources and services.